Regional Weather Roundup
Issued by NWS Sterling, VA

Home | Current Version | Previous Version | Text Only | Print | Product List | Glossary Off
Versions: 1 2 3 4 5 6 7 8 9 10 11 12 13 14 15 16 17 18 19 20 21 22 23 24 25 26 27 28 29 30 31 32 33 34 35 36 37 38 39 40 41 42 43 44 45 46 47 48 49 50

000
ASUS41 KLWX 201810
RWRLWX

REGIONAL WEATHER ROUNDUP
NATIONAL WEATHER SERVICE BALTIMORE MD/WASHINGTON DC
200 PM EDT SAT SEP 20 2014

Note: "FAIR" indicates few or no clouds below 12,000 feet
with no significant weather and/or obstructions to visibility.
 TC=TEMPERATURE CELSIUS

 * =Non NWS site. Station does not report precipitation (e.g. rain,
    snow, etc.), thunder, or fog.

DCZ001-MDZ009-015-VAZ040>042-051-053>054-201900-
WASHINGTON METRO

CITY           SKY/WX    TMP DP  RH WIND       PRES   REMARKS
WASHINGTON NAT MOSUNNY   81  58  45 S9        30.17F
DULLES         MOSUNNY   77  57  50 S10       30.16F
ANDREWS AFB    SUNNY     79  60  53 E8        30.16F
QUANTICO       SUNNY     77  58  51 SW8       30.17F
COLLEGE PARK*  SUNNY     81  57  44 E7        30.15F
LEESBURG*      SUNNY     81  59  47 SE10G16   30.16F
GAITHERSBURG*  SUNNY     77  57  50 SE10      30.20F

$$

MDZ006>007-011-014-201900-
BALTIMORE METRO

CITY           SKY/WX    TMP DP  RH WIND       PRES   REMARKS
BWI AIRPORT    MOSUNNY   77  59  53 VRB7      30.17F
MD SCIENCE CTR   N/A     76  59  55 MISG      30.17F
ANNAPOLIS      SUNNY     75  61  61 SE8       30.17F
FORT MEADE*    MOSUNNY   77  61  57 E7        30.18F

$$

MDZ012-015-019>023-201900-
MARYLAND EASTERN SHORE

CITY           SKY/WX    TMP DP  RH WIND       PRES   REMARKS
OCEAN CITY     CLOUDY    74  63  68 SE7       30.18F
SALISBURY      CLOUDY    79  56  45 E5        30.17F
BAY BRIDGE AP*   N/A     75  59  57 SW7       30.17F
CAMBRIDGE*     SUNNY     79  54  41 E7        30.16F
EASTON*        MOSUNNY   81  59  47 CALM      30.21F

$$

MDZ017>025-201900-
SOUTHERN MARYLAND

CITY           SKY/WX    TMP DP  RH WIND       PRES   REMARKS
PATUXENT RIVER MOSUNNY   76  62  62 VRB7      30.17F
ST INIGOES     PTSUNNY   77  60  55 SE10      30.16F
LEONARDTOWN*   SUNNY     77  54  44 SE6       30.18F

$$

MDZ003>005-201900-
NORTH CENTRAL MARYLAND

CITY           SKY/WX    TMP DP  RH WIND       PRES   REMARKS
FREDERICK*       N/A     84  61  45 S8        30.18F
HAGERSTOWN APT SUNNY     77  56  48 S12G22    30.14F
WESTMINSTER*   SUNNY     79  59  50 S13       30.16F

$$

MDZ501>502-201900-
WESTERN MARYLAND

CITY           SKY/WX    TMP DP  RH WIND       PRES   REMARKS
OAKLAND*       MOSUNNY   72  54  53 SW8       30.19F
CUMBERLAND*    SUNNY     86  54  32 SW7       30.14F

$$

VAZ025>031-201900-
SHENANDOAH VALLEY

CITY           SKY/WX    TMP DP  RH WIND       PRES   REMARKS
WINCHESTER*    MOSUNNY   79  54  41 SE13G21   30.15F
STAUNTON*      MOSUNNY   79  53  39 SE12      30.18F

$$

WVZ021-048>050-054>055-201900-
EASTERN WEST VIRGINIA PANHANDLE

CITY           SKY/WX    TMP DP  RH WIND       PRES   REMARKS
MARTINSBURG    SUNNY     79  54  41 S14       30.14F
PETERSBURG*    SUNNY     82  50  32 SE6       30.12F

$$

VAZ036>039-050-201900-
CENTRAL FOOTHILLS

CITY           SKY/WX    TMP DP  RH WIND       PRES   REMARKS
CHARLOTTESVILL MOSUNNY   78  55  44 VRB3      30.17F
ORANGE*        SUNNY     81  54  39 S8        30.17F

$$

VAZ055>057-201900-
NORTH AND CENTRAL PIEDMONT

CITY           SKY/WX    TMP DP  RH WIND       PRES   REMARKS
FREDERICKSBRG* SUNNY     80  55  41 SE5       30.15F
STAFFORD*      MOSUNNY   79  61  54 E6        30.20F

$$

NCZ024-NYZ072-PAZ021-071-VAZ022-071-201900-
OTHER REGIONAL OBSERVATIONS

CITY           SKY/WX    TMP DP  RH WIND       PRES   REMARKS
NEW YORK CITY  MOSUNNY   73  57  57 VRB7      30.23F
PHILADELPHIA   MOSUNNY   76  58  53 S8        30.18F
PITTSBURGH     CLOUDY    76  60  57 SW13      30.07F
ROANOKE        MOSUNNY   74  56  53 CALM      30.20F
RICHMOND       MOSUNNY   83  54  36 NE8       30.15F
RALEIGH        PTSUNNY   79  59  50 N5        30.14F

$$

ANZ530>537-201900-
MARINE OBSERVATIONS

STATION/POSITION TIME  TEMP    WIND        PRES
                       AIR SEA DIR/SP/G
                 (UTC) (F)     (DEG/KT/KT) (MB)
THOMAS PT LIGHT  1800   72 74  220/  5/  6 1022.6F
BALT KEY BRIDGE  1800   72     110/  9/ 10 1021.9F
COVE POINT       1800   72     190/  6/  7 1021.7F
LEWISETTA        1800   71 74   90/  7/  7 1021.6S
SOLOMONS ISLAND  1800      76                N/A
PINEY POINT      1800          180/  5/  6   N/A

$$




USA.gov is the U.S. government's official web portal to all federal, state and local government web resources and services.